Погода в Томбукту

Мали     16°46′37″N   3°00′23″W
темп.,
°C
ветер,
м/с
пор.,
м/с
влажн.,
%
обл.,
%
осадки,
мм/ч
давл.,
гПа
погр.,
м
9 августа, вт
вт900:00+34ююз91242100 0.0 1006782
03:00+32юз81349100 0.0 1006675
06:00+30ююз71152100 0.3 1009577
09:00+32ююз8943100 0.0 1010742
12:00+36юз8834100 0.0 10091244
15:00+37юз5534100 0.0 10082156
18:00+37ююз4436100 0.0 10061845
21:00+30ю895594 0.9 1009323
10 августа, ср
ср1000:00+30ю7855100 0.9 1009423
03:00+30ююз575872 0.4 1009489
06:00+29ююз345715 0.4 1009286
09:00+31ююз335036 0.0 1010655
12:00+35ю55375 0.0 10091600
15:00+37ююз333248 0.0 10072574
18:00+37ююз213166 0.2 10061679
21:00+34ююз663816 1.0 1009609
11 августа, чт
чт1100:00+33юз464116 1.9 1009386
03:00+32зюз234585 0.7 1009181
06:00+30юз67555 0.7 1010381
09:00+32юз665038 0.0 1011660
12:00+35юз54375 0.0 10101561
15:00+37юз33315 0.0 10072576
18:00+37юз433166 0.0 10072115
21:00+35зюз553813 0.1 1008432
12 августа, пт
пт1200:00+34зюз454080 0.6 1009307
03:00+33зюз5845100 0.5 1008494
06:00+32зюз6950100 0.5 1009511
09:00+31ююв8854100 0.9 1012863
12:00+30ююз8758100 4.4 1012709
15:00+30ююз91053100 4.1 1010740
18:00+29ююз6751100 5.3 1009552
21:00+29юз6659100 1.1 1012736
13 августа, сб
сб1300:00+28зюз6863100 1.1 1012573
03:00+27юз3561100 0.0 1010282
06:00+27зюз236418 0.4 1011212
09:00+29зюз66585 0.0 1012633
12:00+34зюз444119 0.0 10111179
15:00+36з33340 0.0 10092111
18:00+36зсз43341 0.0 10081846
21:00+34юз34383 0.4 1010187